Location: Gleizolles
(44.4833°N, 6.7667°E)
Time: 02:53:07
(UTC+00:00)

Vanguard 1 Rocket - Pass Details

Date: 28 June 2024
Orbit: 650 x 4219 km, 34.3° (Epoch: 15 July)

Event Time Altitude Azimuth Distance (km) Brightness Sun altitude
Rises 21:22:16 0° 188° (S) 4,053 - -15.7°
Reaches altitude 10° 21:25:48 10° 168° (SSE) 3,539 - -16.0°
Maximum altitude 21:31:35 18° 129° (SE) 3,680 - -16.5°
Exits shadow 21:31:38 18° 129° (SE) 3,686 9.9 -16.5°
Drops below altitude 10° 21:39:44 10° 94° (E) 5,277 11.0 -17.2°
Sets 21:47:04 0° 80° (E) 7,059 11.8 -17.8°
